SCP
-0 -0 -0 -0 0 0 0 0 0 0 0 0 0 0 0 0 -0 -0 -0 -0 -0 -0 -0 -0 -0 -0 -0 -0 -0 -0 -0 -0 -0 -0 -0 -0 -0 -0 -0 -0 -0 -0 -0
-0 0 -0 -0 -0 -0 0 0 0 0 0 0 0 0 0 0 0 0 0 0 0 -0 -0 -0 -0 -0 -0 -0 -0 -0 -0 -0 -0 -0 -0 -0 -0 -0 -0 -0 -0 -0 -0
0 0 0 -0 -0 0 0 -0 0 0 0 0 0 0 0 0 0 0 0 0 -0 -0 -0 -0 -0 -0 -0 -0 -0 -0 -0 -0 -0 -0 0 -0 -0 -0 -0 -0 -0 -0 -0
0 0 0 0 0 0 0 0 0 0 0 0 0 0 0 0 0 0 0 0 0 -0 -0 0 0 0 0 0 0 -0 -0 0 0 0 0 -0 0 -0 -0 -0 -0 -0 -0
0 0 0 0 0 0 0 0 0 0 0 0 0 0 0 0 0 0 0 0 0 0 0 0 0 0 0 0 0 0 0 0 0 0 0 0 0 0 0 0 0 0 0
0 0 0 0 0 0 0 0 0 0 0 0 0 0 0 0 0 0 0 0 0 0 0 0 0 0 0 0 0 0 0 0 0 0 0 0 0 0 0 0 0 0 0
0 0 0 0 0 0 0 0 0 0 0 0 0 0 0 0 0 0 0 0 0 0 0 0 0 0 0 0 0 0 0 0 0 0 0 0 0 0 0 0 0 0 0
0 0 1 0 0 0 0 0 0 0 0 0 0 0 0 0 0 0 0 0 0 0 0 0 0 0 0 0 0 0 0 0 0 0 0 0 0 0 0 0 0 0 0
0 0 0 0 0 0 0 0 0 0 0 0 0 0 0 0 0 0 0 0 0 0 0 0 0 0 0 0 0 0 0 0 0 0 0 0 0 0 0 0 0 0 0
0 0 0 0 1 0 0 0 0 0 0 0 0 0 0 0 0 0 0 0 0 0 0 0 0 0 0 0 0 0 0 0 0 0 0 0 0 0 0 0 0 0 0
0 0 0 0 0 0 0 0 0 0 0 0 0 0 0 0 0 0 0 0 0 0 0 0 0 0 0 0 0 0 0 0 0 0 0 0 0 0 0 0 0 0 0
0 0 0 0 0 0 0 0 0 0 0 0 0 0 0 0 0 0 0 0 0 0 0 0 0 0 0 0 0 0 0 0 0 0 0 0 0 0 0 0 0 0 0
0 0 0 0 0 0 0 0 0 0 0 0 0 0 0 0 0 0 0 0 0 0 0 0 0 0 0 0 0 0 0 0 0 0 0 0 0 0 0 0 0 0 0
0 0 0 0 0 0 0 0 0 0 0 0 0 0 0 0 0 0 0 0 0 0 0 0 0 0 0 0 0 0 0 0 0 0 0 0 0 0 0 0 0 0 0
0 0 0 0 0 0 0 0 0 0 0 0 0 0 0 0 0 0 0 0 0 0 0 0 0 0 0 0 0 0 0 0 0 0 0 0 0 0 0 0 0 0 0
0 0 0 0 0 0 0 0 0 0 0 0 0 0 0 0 0 0 0 0 0 0 0 0 0 0 0 0 0 0 0 0 0 0 0 0 0 0 0 0 0 0 0
0 0 0 0 0 0 0 0 0 0 0 0 0 0 0 0 0 0 0 0 0 0 0 0 0 0 0 0 0 0 0 0 0 0 0 0 0 0 0 0 0 0 0
0 0 0 0 0 0 0 0 0 0 0 0 0 0 0 0 0 0 0 0 1 0 0 0 0 0 0 0 0 0 0 0 0 0 0 0 0 0 0 0 0 0 0
0 0 0 0 0 0 0 0 0 0 0 0 0 0 0 0 0 0 0 0 1 1 0 0 0 0 0 0 0 0 0 0 0 0 0 0 0 0 0 0 0 0 0
0 0 0 0 0 0 0 0 0 0 0 0 0 0 0 0 0 0 0 0 0 0 0 0 0 0 0 0 0 0 0 0 0 0 0 0 0 0 0 0 0 0 0
0 0 0 0 0 0 0 0 0 0 0 0 0 0 0 0 0 0 0 0 0 0 0 0 0 0 0 0 0 0 0 0 0 0 0 0 0 0 0 0 0 0 0
0 0 0 0 0 0 0 0 0 0 0 0 0 0 0 0 0 0 0 0 0 1 0 0 0 0 0 0 0 0 0 0 0 0 0 0 0 0 0 0 0 0 0
0 0 0 0 0 0 0 0 0 0 0 0 0 0 0 0 0 0 0 0 0 0 0 0 0 0 0 0 0 0 0 0 0 0 0 0 0 0 0 0 0 0 0
0 0 0 0 0 0 0 0 0 0 0 0 0 0 0 0 0 0 0 0 0 0 0 0 0 0 0 0 0 0 0 0 0 0 0 0 0 0 0 0 0 0 0
0 0 0 0 0 0 0 0 0 0 0 0 0 0 0 0 0 0 0 0 0 0 0 0 0 0 0 0 0 0 0 0 0 0 0 0 0 0 0 0 0 0 0
0 0 0 0 0 0 0 0 0 0 0 0 0 0 0 0 0 0 0 0 0 0 0 0 0 0 0 0 0 0 0 0 0 0 0 0 0 0 0 0 0 0 0
Wind_Speed_500mb
2 3 11 19 21 22 19 17 14 12 11 8 9 10 13 15 20 24 23 25 26 24 19 20 25 22 22 25 22 22 22 20 21 23 26 18 16 17 20 20 20 19 18
5 9 9 19 24 20 19 16 15 11 10 6 8 11 9 13 16 20 20 21 22 21 18 17 15 16 17 21 21 20 24 24 24 20 14 13 14 16 17 18 19 19 17
12 11 9 19 23 21 18 16 15 12 11 9 4 7 8 10 12 16 19 22 17 17 13 8 8 11 13 18 22 25 28 25 18 17 16 12 12 13 14 16 17 17 17
13 13 10 15 23 22 18 16 17 14 11 9 5 1 7 9 10 13 19 23 18 14 10 6 4 11 17 23 26 28 23 16 9 8 13 15 11 11 13 16 17 17 17
9 17 10 13 20 22 21 18 17 15 12 8 7 6 3 7 9 13 19 20 19 15 10 7 7 16 24 27 30 27 21 14 9 9 8 11 10 10 11 14 15 15 15
9 12 14 12 15 18 20 19 17 15 13 12 10 8 5 7 9 13 20 17 13 12 11 11 14 18 23 27 29 27 21 15 10 6 2 3 5 7 10 12 12 12 12
7 12 18 16 13 16 18 20 19 18 17 14 12 10 7 9 11 15 21 16 11 7 9 11 16 17 21 23 26 27 22 15 9 7 5 1 3 4 6 8 8 8 9
10 9 15 16 16 18 21 21 22 21 21 19 17 15 14 13 13 16 19 20 16 10 10 14 18 17 18 21 23 25 23 17 10 8 6 2 1 3 4 4 5 5 6
9 14 15 17 15 17 24 25 25 25 24 23 20 19 19 18 18 18 22 23 23 18 15 17 21 19 20 20 21 23 25 20 14 10 6 3 1 3 3 3 3 2 2
13 13 18 18 19 17 22 24 24 26 27 27 27 26 25 24 23 23 22 27 26 27 19 20 23 22 21 21 21 21 24 23 18 12 9 6 7 6 6 6 6 6 5
14 14 21 24 24 26 22 23 30 31 31 30 32 33 32 30 28 27 27 28 30 33 26 23 26 27 25 23 23 22 24 25 22 16 13 10 11 9 10 11 11 10 9
26 25 23 24 32 31 32 31 31 31 33 31 34 37 37 34 32 30 31 31 30 34 37 30 29 31 32 28 26 26 25 27 26 22 19 14 14 14 13 14 15 15 14
39 36 33 34 32 36 41 42 43 40 40 38 40 40 42 40 37 37 35 37 36 35 43 39 35 36 38 35 32 30 29 31 31 28 25 21 18 20 19 19 19 18 18
34 32 33 37 41 43 42 44 50 51 49 47 44 40 43 46 44 44 43 42 41 36 42 45 43 38 38 39 38 35 32 33 36 34 31 27 23 25 24 24 24 23 22
32 31 31 33 36 40 47 50 49 48 56 56 51 46 42 43 46 44 44 42 42 38 37 41 45 45 42 41 43 43 41 38 33 38 35 33 32 32 30 28 29 29 28
35 34 34 35 38 40 42 44 54 56 52 59 60 55 51 50 51 48 47 46 47 46 43 42 46 49 48 45 46 48 46 43 39 37 38 34 40 38 36 34 33 33 35
33 38 42 45 45 48 51 49 47 52 62 60 65 65 61 59 58 56 58 53 53 48 47 49 47 50 47 46 46 40 41 44 44 40 44 46 44 44 42 42 42 39 37
24 31 42 51 56 56 58 61 60 55 55 68 66 68 67 65 60 57 58 61 52 53 56 56 50 50 51 46 47 46 43 42 43 41 48 54 52 51 49 47 43 40 39
39 49 58 59 57 62 68 65 64 61 60 58 72 69 69 64 63 64 61 68 60 60 64 61 58 55 59 57 57 47 46 46 46 49 51 45 49 52 52 51 50 47 45
45 52 57 60 61 63 64 65 66 67 62 60 62 75 72 68 64 69 66 69 68 67 68 65 64 59 58 64 58 55 52 51 52 54 53 53 53 56 61 62 58 57 55
57 63 67 69 71 70 65 61 65 67 66 63 61 62 77 77 68 67 67 67 71 71 68 71 67 62 61 53 57 56 54 51 53 52 52 53 57 54 57 60 65 66 64
55 49 52 56 62 69 77 68 61 58 65 64 60 57 58 74 82 70 71 70 67 70 70 68 62 63 55 49 46 44 46 49 55 58 56 57 57 59 61 63 62 59 63
50 49 50 49 58 62 63 70 62 58 57 68 55 60 53 53 66 82 74 69 69 74 73 68 62 61 52 49 47 37 15 25 32 34 35 40 46 50 54 54 50 56 61
47 51 50 49 57 58 47 52 51 51 53 59 59 54 55 53 50 55 76 73 65 66 69 66 63 66 55 50 50 52 53 54 34 35 45 41 41 50 52 54 57 63 59
40 44 48 43 48 36 27 27 35 40 40 45 46 49 54 48 54 47 49 64 67 64 64 61 64 66 59 58 56 50 51 53 53 59 56 53 55 56 60 61 59 63 61
38 40 46 40 37 28 23 24 30 33 37 40 42 43 43 50 50 52 53 45 62 70 70 64 55 66 62 59 57 51 51 52 52 48 56 58 66 67 61 49 54 61 60
Wind_Direction_500mb
232 166 183 176 173 169 165 161 155 147 136 116 108 98 100 103 114 122 120 116 118 107 114 117 103 103 105 124 124 106 113 110 107 105 98 94 81 63 53 56 59 61 64
230 233 213 192 183 176 171 170 168 158 152 109 101 78 101 109 121 132 126 125 123 118 122 125 121 108 115 123 137 121 115 111 105 98 85 69 58 50 53 53 51 56 65
225 207 220 206 192 187 179 175 172 168 163 148 158 92 100 115 126 139 139 129 132 142 148 131 150 140 129 137 138 132 122 118 114 97 88 72 52 56 58 59 56 57 62
175 177 218 210 198 191 186 182 179 177 176 168 171 109 103 132 135 146 156 149 142 163 188 195 168 153 149 150 143 137 132 132 128 111 85 67 50 53 53 51 53 59 63
175 172 212 211 204 198 194 192 188 185 187 188 180 204 213 159 157 160 165 166 170 190 188 166 151 144 149 151 149 148 143 141 131 107 108 35 36 46 49 50 55 60 66
166 191 207 202 205 206 206 202 199 202 203 199 197 213 201 179 176 171 163 158 162 175 167 163 151 150 153 157 160 159 162 174 176 180 193 4 37 38 44 49 53 59 65
153 202 218 215 217 220 217 216 214 212 213 214 212 222 227 198 185 185 186 182 177 174 182 171 162 163 163 163 170 174 178 195 197 183 152 152 88 49 48 53 55 61 65
171 203 215 221 229 232 227 226 226 225 225 225 229 232 231 221 214 210 205 206 209 203 196 187 180 181 179 175 179 187 198 211 221 194 158 177 58 13 19 39 50 56 59
199 213 228 225 244 234 222 230 238 238 238 241 238 234 235 232 227 228 225 221 223 223 216 205 198 197 199 193 189 192 201 211 217 217 200 187 226 316 318 330 343 353 12
232 232 239 232 239 237 225 229 236 246 247 246 244 242 238 241 238 235 234 229 233 225 230 222 212 207 205 205 202 199 203 208 223 226 230 233 268 290 289 288 285 287 290
260 241 238 248 244 245 251 247 239 236 242 248 249 249 247 246 245 243 240 235 234 231 233 234 225 220 216 214 210 206 207 214 222 234 234 232 260 282 285 280 273 273 275
281 262 249 239 245 245 247 247 250 249 244 247 251 253 251 250 247 246 244 241 242 237 231 236 234 230 227 223 219 216 213 219 223 233 237 237 256 274 279 276 274 275 273
289 281 263 251 245 244 248 248 247 248 252 249 253 253 253 250 248 244 241 237 235 236 232 234 237 235 233 231 229 226 220 222 227 237 245 247 257 270 278 274 272 274 272
293 292 281 271 258 249 247 246 248 248 247 245 249 256 247 248 247 245 243 236 237 242 243 242 244 244 243 240 236 235 229 228 229 237 247 251 257 265 274 278 274 274 272
313 312 306 292 282 272 256 248 248 247 247 247 247 248 250 248 244 240 241 233 236 238 248 251 251 248 247 246 244 242 238 236 230 235 250 255 261 265 273 276 279 275 274
308 309 305 300 295 287 277 267 253 248 247 244 246 248 248 252 245 240 237 238 242 244 253 257 257 253 251 252 250 246 246 241 239 243 252 257 259 264 270 274 280 279 275
290 291 292 293 291 287 285 277 268 256 247 244 242 243 248 249 253 244 239 242 243 245 252 256 259 251 247 246 248 244 245 245 249 253 262 262 260 264 267 272 278 276 278
285 282 282 285 284 282 283 280 276 268 256 245 243 240 241 241 246 244 248 245 245 245 250 255 257 250 248 244 244 240 243 247 252 260 270 263 260 263 266 269 273 273 276
278 280 280 279 279 280 276 271 273 270 262 256 244 242 239 241 240 242 246 245 244 244 250 254 254 252 246 244 246 249 249 250 253 259 266 265 264 265 265 265 266 269 272
274 273 275 276 279 281 277 273 270 266 261 261 255 245 243 239 243 245 247 245 242 243 248 253 250 247 249 252 254 247 250 252 257 261 266 272 273 271 274 267 265 267 270
285 278 275 276 275 279 276 273 269 266 263 263 263 256 245 243 240 245 245 245 245 248 251 250 250 249 249 250 249 253 253 245 253 259 263 267 267 271 272 267 265 268 270
318 304 295 289 285 275 267 267 265 268 266 262 266 265 255 245 243 244 246 247 245 245 244 246 246 243 242 237 238 245 253 251 254 257 262 265 270 276 273 272 266 268 270
328 323 318 312 308 296 275 260 261 263 264 260 260 266 260 253 247 245 250 248 249 247 248 247 245 241 241 239 244 236 223 237 264 274 273 272 271 268 272 270 268 270 268
329 325 329 329 325 315 285 257 258 266 268 265 259 265 269 264 262 254 246 248 250 252 251 248 242 243 238 239 241 242 246 252 258 284 280 278 271 266 266 271 275 271 265
331 330 334 331 335 328 312 260 266 268 273 273 262 262 261 264 262 261 263 249 247 251 251 246 242 245 245 248 252 254 256 255 258 263 275 275 278 272 275 280 270 268 259
335 325 339 342 339 339 318 263 266 271 273 269 265 262 263 261 266 264 264 270 250 249 254 250 246 250 251 253 257 254 253 254 261 264 267 272 284 281 286 273 280 268 256
Wind_Speed_850mb
2 3 11 19 21 22 19 17 14 12 11 8 9 10 13 15 20 24 23 25 26 24 19 20 25 22 22 25 22 22 22 20 21 23 26 18 16 17 20 20 20 19 18
5 9 9 19 24 20 19 16 15 11 10 6 8 11 9 13 16 20 20 21 22 21 18 17 15 16 17 21 21 20 24 24 24 20 14 13 14 16 17 18 19 19 17
12 11 9 19 23 21 18 16 15 12 11 9 4 7 8 10 12 16 19 22 17 17 13 8 8 11 13 18 22 25 28 25 18 17 16 12 12 13 14 16 17 17 17
13 13 10 15 23 22 18 16 17 14 11 9 5 1 7 9 10 13 19 23 18 14 10 6 4 11 17 23 26 28 23 16 9 8 13 15 11 11 13 16 17 17 17
9 17 10 13 20 22 21 18 17 15 12 8 7 6 3 7 9 13 19 20 19 15 10 7 7 16 24 27 30 27 21 14 9 9 8 11 10 10 11 14 15 15 15
9 12 14 12 15 18 20 19 17 15 13 12 10 8 5 7 9 13 20 17 13 12 11 11 14 18 23 27 29 27 21 15 10 6 2 3 5 7 10 12 12 12 12
7 12 18 16 13 16 18 20 19 18 17 14 12 10 7 9 11 15 21 16 11 7 9 11 16 17 21 23 26 27 22 15 9 7 5 1 3 4 6 8 8 8 9
10 9 15 16 16 18 21 21 22 21 21 19 17 15 14 13 13 16 19 20 16 10 10 14 18 17 18 21 23 25 23 17 10 8 6 2 1 3 4 4 5 5 6
9 14 15 17 15 17 24 25 25 25 24 23 20 19 19 18 18 18 22 23 23 18 15 17 21 19 20 20 21 23 25 20 14 10 6 3 1 3 3 3 3 2 2
13 13 18 18 19 17 22 24 24 26 27 27 27 26 25 24 23 23 22 27 26 27 19 20 23 22 21 21 21 21 24 23 18 12 9 6 7 6 6 6 6 6 5
14 14 21 24 24 26 22 23 30 31 31 30 32 33 32 30 28 27 27 28 30 33 26 23 26 27 25 23 23 22 24 25 22 16 13 10 11 9 10 11 11 10 9
26 25 23 24 32 31 32 31 31 31 33 31 34 37 37 34 32 30 31 31 30 34 37 30 29 31 32 28 26 26 25 27 26 22 19 14 14 14 13 14 15 15 14
39 36 33 34 32 36 41 42 43 40 40 38 40 40 42 40 37 37 35 37 36 35 43 39 35 36 38 35 32 30 29 31 31 28 25 21 18 20 19 19 19 18 18
34 32 33 37 41 43 42 44 50 51 49 47 44 40 43 46 44 44 43 42 41 36 42 45 43 38 38 39 38 35 32 33 36 34 31 27 23 25 24 24 24 23 22
32 31 31 33 36 40 47 50 49 48 56 56 51 46 42 43 46 44 44 42 42 38 37 41 45 45 42 41 43 43 41 38 33 38 35 33 32 32 30 28 29 29 28
35 34 34 35 38 40 42 44 54 56 52 59 60 55 51 50 51 48 47 46 47 46 43 42 46 49 48 45 46 48 46 43 39 37 38 34 40 38 36 34 33 33 35
33 38 42 45 45 48 51 49 47 52 62 60 65 65 61 59 58 56 58 53 53 48 47 49 47 50 47 46 46 40 41 44 44 40 44 46 44 44 42 42 42 39 37
24 31 42 51 56 56 58 61 60 55 55 68 66 68 67 65 60 57 58 61 52 53 56 56 50 50 51 46 47 46 43 42 43 41 48 54 52 51 49 47 43 40 39
39 49 58 59 57 62 68 65 64 61 60 58 72 69 69 64 63 64 61 68 60 60 64 61 58 55 59 57 57 47 46 46 46 49 51 45 49 52 52 51 50 47 45
45 52 57 60 61 63 64 65 66 67 62 60 62 75 72 68 64 69 66 69 68 67 68 65 64 59 58 64 58 55 52 51 52 54 53 53 53 56 61 62 58 57 55
57 63 67 69 71 70 65 61 65 67 66 63 61 62 77 77 68 67 67 67 71 71 68 71 67 62 61 53 57 56 54 51 53 52 52 53 57 54 57 60 65 66 64
55 49 52 56 62 69 77 68 61 58 65 64 60 57 58 74 82 70 71 70 67 70 70 68 62 63 55 49 46 44 46 49 55 58 56 57 57 59 61 63 62 59 63
50 49 50 49 58 62 63 70 62 58 57 68 55 60 53 53 66 82 74 69 69 74 73 68 62 61 52 49 47 37 15 25 32 34 35 40 46 50 54 54 50 56 61
47 51 50 49 57 58 47 52 51 51 53 59 59 54 55 53 50 55 76 73 65 66 69 66 63 66 55 50 50 52 53 54 34 35 45 41 41 50 52 54 57 63 59
40 44 48 43 48 36 27 27 35 40 40 45 46 49 54 48 54 47 49 64 67 64 64 61 64 66 59 58 56 50 51 53 53 59 56 53 55 56 60 61 59 63 61
38 40 46 40 37 28 23 24 30 33 37 40 42 43 43 50 50 52 53 45 62 70 70 64 55 66 62 59 57 51 51 52 52 48 56 58 66 67 61 49 54 61 60
Wind_Direction_850mb
232 166 183 176 173 169 165 161 155 147 136 116 108 98 100 103 114 122 120 116 118 107 114 117 103 103 105 124 124 106 113 110 107 105 98 94 81 63 53 56 59 61 64
230 233 213 192 183 176 171 170 168 158 152 109 101 78 101 109 121 132 126 125 123 118 122 125 121 108 115 123 137 121 115 111 105 98 85 69 58 50 53 53 51 56 65
225 207 220 206 192 187 179 175 172 168 163 148 158 92 100 115 126 139 139 129 132 142 148 131 150 140 129 137 138 132 122 118 114 97 88 72 52 56 58 59 56 57 62
175 177 218 210 198 191 186 182 179 177 176 168 171 109 103 132 135 146 156 149 142 163 188 195 168 153 149 150 143 137 132 132 128 111 85 67 50 53 53 51 53 59 63
175 172 212 211 204 198 194 192 188 185 187 188 180 204 213 159 157 160 165 166 170 190 188 166 151 144 149 151 149 148 143 141 131 107 108 35 36 46 49 50 55 60 66
166 191 207 202 205 206 206 202 199 202 203 199 197 213 201 179 176 171 163 158 162 175 167 163 151 150 153 157 160 159 162 174 176 180 193 4 37 38 44 49 53 59 65
153 202 218 215 217 220 217 216 214 212 213 214 212 222 227 198 185 185 186 182 177 174 182 171 162 163 163 163 170 174 178 195 197 183 152 152 88 49 48 53 55 61 65
171 203 215 221 229 232 227 226 226 225 225 225 229 232 231 221 214 210 205 206 209 203 196 187 180 181 179 175 179 187 198 211 221 194 158 177 58 13 19 39 50 56 59
199 213 228 225 244 234 222 230 238 238 238 241 238 234 235 232 227 228 225 221 223 223 216 205 198 197 199 193 189 192 201 211 217 217 200 187 226 316 318 330 343 353 12
232 232 239 232 239 237 225 229 236 246 247 246 244 242 238 241 238 235 234 229 233 225 230 222 212 207 205 205 202 199 203 208 223 226 230 233 268 290 289 288 285 287 290
260 241 238 248 244 245 251 247 239 236 242 248 249 249 247 246 245 243 240 235 234 231 233 234 225 220 216 214 210 206 207 214 222 234 234 232 260 282 285 280 273 273 275
281 262 249 239 245 245 247 247 250 249 244 247 251 253 251 250 247 246 244 241 242 237 231 236 234 230 227 223 219 216 213 219 223 233 237 237 256 274 279 276 274 275 273
289 281 263 251 245 244 248 248 247 248 252 249 253 253 253 250 248 244 241 237 235 236 232 234 237 235 233 231 229 226 220 222 227 237 245 247 257 270 278 274 272 274 272
293 292 281 271 258 249 247 246 248 248 247 245 249 256 247 248 247 245 243 236 237 242 243 242 244 244 243 240 236 235 229 228 229 237 247 251 257 265 274 278 274 274 272
313 312 306 292 282 272 256 248 248 247 247 247 247 248 250 248 244 240 241 233 236 238 248 251 251 248 247 246 244 242 238 236 230 235 250 255 261 265 273 276 279 275 274
308 309 305 300 295 287 277 267 253 248 247 244 246 248 248 252 245 240 237 238 242 244 253 257 257 253 251 252 250 246 246 241 239 243 252 257 259 264 270 274 280 279 275
290 291 292 293 291 287 285 277 268 256 247 244 242 243 248 249 253 244 239 242 243 245 252 256 259 251 247 246 248 244 245 245 249 253 262 262 260 264 267 272 278 276 278
285 282 282 285 284 282 283 280 276 268 256 245 243 240 241 241 246 244 248 245 245 245 250 255 257 250 248 244 244 240 243 247 252 260 270 263 260 263 266 269 273 273 276
278 280 280 279 279 280 276 271 273 270 262 256 244 242 239 241 240 242 246 245 244 244 250 254 254 252 246 244 246 249 249 250 253 259 266 265 264 265 265 265 266 269 272
274 273 275 276 279 281 277 273 270 266 261 261 255 245 243 239 243 245 247 245 242 243 248 253 250 247 249 252 254 247 250 252 257 261 266 272 273 271 274 267 265 267 270
285 278 275 276 275 279 276 273 269 266 263 263 263 256 245 243 240 245 245 245 245 248 251 250 250 249 249 250 249 253 253 245 253 259 263 267 267 271 272 267 265 268 270
318 304 295 289 285 275 267 267 265 268 266 262 266 265 255 245 243 244 246 247 245 245 244 246 246 243 242 237 238 245 253 251 254 257 262 265 270 276 273 272 266 268 270
328 323 318 312 308 296 275 260 261 263 264 260 260 266 260 253 247 245 250 248 249 247 248 247 245 241 241 239 244 236 223 237 264 274 273 272 271 268 272 270 268 270 268
329 325 329 329 325 315 285 257 258 266 268 265 259 265 269 264 262 254 246 248 250 252 251 248 242 243 238 239 241 242 246 252 258 284 280 278 271 266 266 271 275 271 265
331 330 334 331 335 328 312 260 266 268 273 273 262 262 261 264 262 261 263 249 247 251 251 246 242 245 245 248 252 254 256 255 258 263 275 275 278 272 275 280 270 268 259
335 325 339 342 339 339 318 263 266 271 273 269 265 262 263 261 266 264 264 270 250 249 254 250 246 250 251 253 257 254 253 254 261 264 267 272 284 281 286 273 280 268 256